Regional Weather Roundup
Issued by NWS Nashville, TN

Home | Current Version | Previous Version | Text Only | Print | Product List | Glossary On
Versions: 1 2 3 4 5 6 7 8 9 10 11 12 13 14 15 16 17 18 19 20 21 22 23 24 25 26 27 28 29 30 31 32 33 34 35 36 37 38 39 40 41 42 43 44 45 46 47 48 49 50
000
ASUS44 KOHX 210315
RWROHX
MIDDLE TENNESSEE HOURLY WEATHER ROUNDUP
NATIONAL WEATHER SERVICE NASHVILLE TN
900 PM CST THU NOV 20 2014

NOTE: "FAIR" INDICATES FEW OR NO CLOUDS BELOW 12,000 FEET WITH
NO SIGNIFICANT WEATHER AND/OR OBSTRUCTIONS TO VISIBILITY.

* THESE REPORTS ARE NOT UNDER NWS QUALITY CONTROL AND MAY NOT
  REPORT WEATHER SUCH AS PRECIPITATION AND FOG.


TNZ005>011-023>034-057-059-062>066-078-080-210400
...NORTHERN MIDDLE TENNESSEE...

CITY           SKY/WX    TMP DP  RH WIND       PRES   REMARKS
CLARKSVILLE    CLEAR     31  21  66 N5        30.28R WCI  26
CROSSVILLE     CLEAR     34  21  59 W7        30.23R WCI  28
GALLATIN         N/A     29  24  81 CALM      30.29R
DICKSON        CLEAR     30  19  64 CALM      30.26R
LEBANON        CLEAR     28  22  78 CALM      30.26R
LIVINGSTON     CLEAR     36  16  44 CALM      30.24R
NASHVILLE      CLEAR     33  23  66 CALM      30.28R
WEST NASHVILLE   N/A     32  25  74 CALM      30.28R
PORTLAND         N/A     27  19  74 CALM      30.26R
SMYRNA         CLEAR     28  23  81 CALM      30.29R
SPARTA         CLEAR     25  21  86 CALM      30.25R
$$
TNZ056-058-060-061-075>077-079-093>097-210400
...SOUTHERN MIDDLE TENNESSEE...

CITY           SKY/WX    TMP DP  RH WIND       PRES   REMARKS
COLUMBIA       CLEAR     30  30 100 CALM      30.25S
LEWISBURG      CLEAR     29  24  81 CALM      30.27R
MCMINNVILLE    CLEAR     30  25  80 CALM      30.26R
MURFREESBORO   CLEAR     33  25  73 CALM      30.27R
SHELBYVILLE    CLEAR     28  27  93 E3        30.28S
TULLAHOMA      CLEAR     28  23  80 CALM      30.27R
WINCHESTER     CLEAR     30  27  86 CALM      30.27S
$$


...KEY TO REMARKS...
VSB - VISIBILITY IN MILES
WCI - WIND CHILL INDEX
HX  - HEAT INDEX



USA.gov is the U.S. government's official web portal to all federal, state and local government web resources and services.